Data No, UTC Date,UTC Time,Latitude,Longitude,Course(deg),Temp(degC),Sal(psu)
717,2018/5/25,11:56,42-36.94N,141-37.08E,210,9.568,31.3254
718,2018/5/25,11:57,42-36.71N,141-36.90E,209,9.634,31.3438
719,2018/5/25,11:58,42-36.47N,141-36.71E,211,9.647,31.3689
720,2018/5/25,11:59,42-36.22N,141-36.56E,201,9.756,31.3974
721,2018/5/25,12:00,42-35.95N,141-36.42E,202,9.874,31.4506
722,2018/5/25,12:01,42-35.69N,141-36.28E,200,9.946,31.5029
723,2018/5/25,12:02,42-35.41N,141-36.14E,200,9.783,31.485
724,2018/5/25,12:03,42-35.15N,141-36.01E,200,9.941,31.509
725,2018/5/25,12:04,42-34.88N,141-35.88E,200,9.862,31.5942
726,2018/5/25,12:05,42-34.62N,141-35.74E,200,9.882,31.6208
727,2018/5/25,12:06,42-34.35N,141-35.60E,200,10.048,31.6605
728,2018/5/25,12:07,42-34.08N,141-35.47E,200,10.385,31.6438
729,2018/5/25,12:08,42-33.81N,141-35.33E,200,10.46,31.631
730,2018/5/25,12:09,42-33.54N,141-35.20E,200,10.174,31.5974
731,2018/5/25,12:10,42-33.28N,141-35.07E,199,10.131,31.5323
732,2018/5/25,12:11,42-33.01N,141-34.94E,199,10.123,31.4578
733,2018/5/25,12:12,42-32.75N,141-34.80E,200,10.099,31.4376
734,2018/5/25,12:13,42-32.48N,141-34.68E,199,10.134,31.4339
735,2018/5/25,12:14,42-32.22N,141-34.55E,199,10.074,31.4633
736,2018/5/25,12:15,42-31.95N,141-34.42E,199,9.838,31.4955
737,2018/5/25,12:16,42-31.68N,141-34.29E,199,9.767,31.5508
738,2018/5/25,12:17,42-31.42N,141-34.16E,200,9.681,31.6397
739,2018/5/25,12:18,42-31.15N,141-34.03E,200,9.749,31.7111
740,2018/5/25,12:19,42-30.88N,141-33.90E,200,9.769,31.7535
741,2018/5/25,12:20,42-30.62N,141-33.76E,200,9.811,31.7055
742,2018/5/25,12:21,42-30.35N,141-33.63E,200,9.767,31.7695
743,2018/5/25,12:22,42-30.09N,141-33.49E,200,9.767,31.7988
744,2018/5/25,12:23,42-29.83N,141-33.38E,190,9.782,31.8064
745,2018/5/25,12:24,42-29.56N,141-33.39E,174,9.674,31.8157
746,2018/5/25,12:25,42-29.29N,141-33.45E,171,9.586,31.8625
747,2018/5/25,12:26,42-29.02N,141-33.49E,172,9.2,31.9372
748,2018/5/25,12:27,42-28.75N,141-33.54E,173,9.105,32.0443
749,2018/5/25,12:28,42-28.47N,141-33.58E,174,8.934,32.1414
750,2018/5/25,12:29,42-28.19N,141-33.62E,174,8.774,32.2097
751,2018/5/25,12:30,42-27.92N,141-33.65E,174,8.702,32.2881
752,2018/5/25,12:31,42-27.64N,141-33.68E,175,8.579,32.3208
753,2018/5/25,12:32,42-27.37N,141-33.71E,175,8.399,32.3256
754,2018/5/25,12:33,42-27.10N,141-33.74E,175,8.228,32.3311
755,2018/5/25,12:34,42-26.82N,141-33.77E,174,8.112,32.3334
756,2018/5/25,12:35,42-26.54N,141-33.81E,174,7.917,32.3329
757,2018/5/25,12:36,42-26.26N,141-33.84E,175,7.825,32.3365
758,2018/5/25,12:37,42-25.95N,141-33.88E,174,7.822,32.3333
759,2018/5/25,12:38,42-25.68N,141-33.90E,174,7.731,32.3262
760,2018/5/25,12:39,42-25.43N,141-33.92E,177,7.824,32.3237
761,2018/5/25,12:40,42-25.10N,141-33.94E,177,7.842,32.3248
762,2018/5/25,12:41,42-24.86N,141-33.95E,178,8.164,32.325
763,2018/5/25,12:42,42-24.59N,141-33.96E,177,8.178,32.327
764,2018/5/25,12:43,42-24.31N,141-33.97E,177,8.095,32.3298
765,2018/5/25,12:44,42-24.03N,141-33.98E,177,8.302,32.35
766,2018/5/25,12:45,42-23.75N,141-33.99E,178,8.354,32.3683
767,2018/5/25,12:46,42-23.47N,141-34.01E,178,8.331,32.3806
768,2018/5/25,12:47,42-23.20N,141-34.02E,178,8.188,32.3932
769,2018/5/25,12:48,42-22.92N,141-34.03E,178,8.22,32.4085
770,2018/5/25,12:49,42-22.63N,141-34.04E,178,8.391,32.4195
771,2018/5/25,12:50,42-22.36N,141-34.05E,178,8.488,32.4161
772,2018/5/25,12:51,42-22.08N,141-34.06E,178,8.648,32.4153
773,2018/5/25,12:52,42-21.80N,141-34.08E,178,8.861,32.4114
774,2018/5/25,12:53,42-21.52N,141-34.09E,178,8.996,32.4114
775,2018/5/25,12:54,42-21.24N,141-34.10E,178,9.008,32.4078
776,2018/5/25,12:55,42-20.97N,141-34.11E,178,8.946,32.404
777,2018/5/25,12:56,42-20.69N,141-34.11E,178,8.844,32.4038
778,2018/5/25,12:57,42-20.42N,141-34.12E,178,8.748,32.4093
779,2018/5/25,12:58,42-20.14N,141-34.14E,178,8.79,32.4168
780,2018/5/25,12:59,42-19.86N,141-34.14E,178,8.892,32.4263
781,2018/5/25,13:00,42-19.58N,141-34.15E,178,8.959,32.4309
782,2018/5/25,13:01,42-19.31N,141-34.16E,178,9.078,32.4312
783,2018/5/25,13:02,42-19.03N,141-34.18E,178,8.99,32.4285
784,2018/5/25,13:03,42-18.75N,141-34.19E,177,8.892,32.424
785,2018/5/25,13:04,42-18.47N,141-34.20E,178,8.719,32.4073
786,2018/5/25,13:05,42-18.20N,141-34.21E,178,8.488,32.3917
787,2018/5/25,13:06,42-17.92N,141-34.22E,178,8.29,32.3674
788,2018/5/25,13:07,42-17.64N,141-34.23E,178,8.213,32.3388
789,2018/5/25,13:08,42-17.36N,141-34.24E,178,8.08,32.3196
790,2018/5/25,13:09,42-17.08N,141-34.25E,178,7.995,32.3099
791,2018/5/25,13:10,42-16.81N,141-34.26E,178,7.982,32.3045
792,2018/5/25,13:11,42-16.53N,141-34.26E,178,7.839,32.3001
793,2018/5/25,13:12,42-16.25N,141-34.27E,178,7.887,32.3015
794,2018/5/25,13:13,42-15.97N,141-34.27E,180,7.978,32.3014
795,2018/5/25,13:14,42-15.70N,141-34.26E,181,8.049,32.2949
796,2018/5/25,13:15,42-15.42N,141-34.25E,182,8.125,32.2852
797,2018/5/25,13:16,42-15.15N,141-34.24E,182,8.222,32.2883
798,2018/5/25,13:17,42-14.87N,141-34.22E,182,8.308,32.2928
799,2018/5/25,13:18,42-14.59N,141-34.20E,182,8.235,32.29
800,2018/5/25,13:19,42-14.32N,141-34.19E,182,8.313,32.298
801,2018/5/25,13:20,42-14.04N,141-34.17E,182,8.294,32.3018
802,2018/5/25,13:21,42-13.77N,141-34.16E,182,8.211,32.3082
803,2018/5/25,13:22,42-13.49N,141-34.14E,182,8.189,32.3326
804,2018/5/25,13:23,42-13.22N,141-34.12E,182,8.305,32.3585
805,2018/5/25,13:24,42-12.94N,141-34.11E,182,8.784,32.4152
806,2018/5/25,13:25,42-12.66N,141-34.09E,182,8.927,32.526
807,2018/5/25,13:26,42-12.39N,141-34.07E,182,8.932,32.6372
808,2018/5/25,13:27,42-12.11N,141-34.05E,182,9.082,32.6734
809,2018/5/25,13:28,42-11.84N,141-34.04E,182,9.281,32.7
810,2018/5/25,13:29,42-11.56N,141-34.02E,182,9.373,32.7169
811,2018/5/25,13:30,42-11.29N,141-34.01E,180,9.399,32.7367
812,2018/5/25,13:31,42-11.01N,141-34.01E,179,9.39,32.7465
813,2018/5/25,13:32,42-10.75N,141-34.02E,179,9.408,32.7568
814,2018/5/25,13:33,42-10.47N,141-34.02E,178,9.373,32.764
815,2018/5/25,13:34,42-10.20N,141-34.04E,177,9.347,32.7737
816,2018/5/25,13:35,42-09.93N,141-34.05E,178,9.238,32.786
817,2018/5/25,13:36,42-09.65N,141-34.06E,177,9.261,32.8066
818,2018/5/25,13:37,42-09.38N,141-34.08E,177,9.354,32.8252
819,2018/5/25,13:38,42-09.11N,141-34.09E,177,9.385,32.8345
820,2018/5/25,13:39,42-08.83N,141-34.11E,177,9.309,32.8364
821,2018/5/25,13:40,42-08.56N,141-34.12E,177,9.321,32.8386
822,2018/5/25,13:41,42-08.29N,141-34.14E,176,9.322,32.83
823,2018/5/25,13:42,42-08.02N,141-34.16E,176,9.356,32.8082
824,2018/5/25,13:43,42-07.75N,141-34.18E,176,9.4,32.7898
825,2018/5/25,13:44,42-07.47N,141-34.19E,177,9.544,32.7817
826,2018/5/25,13:45,42-07.20N,141-34.21E,176,9.604,32.8001
827,2018/5/25,13:46,42-06.93N,141-34.23E,176,9.683,32.8224
828,2018/5/25,13:47,42-06.66N,141-34.25E,177,9.718,32.8351
829,2018/5/25,13:48,42-06.39N,141-34.27E,177,9.822,32.8476
830,2018/5/25,13:49,42-06.12N,141-34.29E,176,9.866,32.8561
831,2018/5/25,13:50,42-05.85N,141-34.31E,176,9.818,32.8641
832,2018/5/25,13:51,42-05.58N,141-34.33E,176,9.695,32.8703
833,2018/5/25,13:52,42-05.31N,141-34.35E,176,9.681,32.8701
834,2018/5/25,13:53,42-05.03N,141-34.37E,177,9.806,32.8692
835,2018/5/25,13:54,42-04.76N,141-34.39E,176,9.805,32.8703
836,2018/5/25,13:55,42-04.49N,141-34.41E,176,9.88,32.8727
837,2018/5/25,13:56,42-04.22N,141-34.43E,176,9.945,32.8739
838,2018/5/25,13:57,42-03.95N,141-34.45E,176,9.869,32.8789
839,2018/5/25,13:58,42-03.69N,141-34.47E,176,9.96,32.8826
840,2018/5/25,13:59,42-03.41N,141-34.49E,176,10.056,32.8854
841,2018/5/25,14:00,42-03.14N,141-34.50E,178,10.081,32.889
842,2018/5/25,14:01,42-02.86N,141-34.50E,179,10.112,32.8971
843,2018/5/25,14:02,42-02.59N,141-34.50E,179,10.074,32.9045
844,2018/5/25,14:03,42-02.32N,141-34.51E,179,10.061,32.9083
845,2018/5/25,14:04,42-02.04N,141-34.52E,178,10.051,32.9098
846,2018/5/25,14:05,42-01.76N,141-34.52E,179,10.068,32.9103
847,2018/5/25,14:06,42-01.48N,141-34.52E,180,10.069,32.9097
848,2018/5/25,14:07,42-01.21N,141-34.52E,180,10.099,32.9101
849,2018/5/25,14:08,42-00.93N,141-34.52E,180,10.101,32.9076
850,2018/5/25,14:09,42-00.65N,141-34.52E,180,10.085,32.9056
851,2018/5/25,14:10,42-00.37N,141-34.52E,179,10.079,32.903
852,2018/5/25,14:11,42-00.09N,141-34.52E,180,10.074,32.8971
853,2018/5/25,14:12,41-59.81N,141-34.52E,178,10.054,32.8928
854,2018/5/25,14:13,41-59.53N,141-34.53E,179,10.057,32.885
855,2018/5/25,14:14,41-59.25N,141-34.53E,179,10.064,32.8799
856,2018/5/25,14:15,41-58.97N,141-34.53E,179,10.069,32.8761
857,2018/5/25,14:16,41-58.69N,141-34.55E,177,9.947,32.88
858,2018/5/25,14:17,41-58.41N,141-34.56E,178,9.82,32.898
859,2018/5/25,14:18,41-58.13N,141-34.57E,179,9.732,32.9032
860,2018/5/25,14:19,41-57.85N,141-34.58E,179,9.607,32.8864
861,2018/5/25,14:20,41-57.56N,141-34.59E,178,9.41,32.8484
862,2018/5/25,14:21,41-57.28N,141-34.60E,177,8.985,32.7982
863,2018/5/25,14:22,41-57.00N,141-34.61E,178,8.871,32.7466
864,2018/5/25,14:23,41-56.71N,141-34.62E,178,8.838,32.6934
865,2018/5/25,14:24,41-56.43N,141-34.63E,178,8.792,32.6568
866,2018/5/25,14:25,41-56.15N,141-34.64E,178,8.7,32.6308
867,2018/5/25,14:26,41-55.86N,141-34.64E,179,8.623,32.6089
868,2018/5/25,14:27,41-55.58N,141-34.65E,179,8.491,32.5914
869,2018/5/25,14:28,41-55.29N,141-34.66E,179,8.463,32.5796
870,2018/5/25,14:29,41-55.00N,141-34.66E,178,8.43,32.5725
871,2018/5/25,14:30,41-54.72N,141-34.67E,179,8.424,32.5711
872,2018/5/25,14:31,41-54.44N,141-34.67E,178,8.435,32.5728
873,2018/5/25,14:32,41-54.16N,141-34.68E,179,8.476,32.5826
874,2018/5/25,14:33,41-53.86N,141-34.68E,179,8.559,32.5882
875,2018/5/25,14:34,41-53.58N,141-34.69E,179,8.678,32.5914
876,2018/5/25,14:35,41-53.29N,141-34.69E,179,8.763,32.599
877,2018/5/25,14:36,41-53.01N,141-34.70E,179,8.719,32.6079
878,2018/5/25,14:37,41-52.73N,141-34.70E,179,8.623,32.6041
879,2018/5/25,14:38,41-52.44N,141-34.70E,179,8.652,32.578
880,2018/5/25,14:39,41-52.16N,141-34.71E,179,8.69,32.5451
881,2018/5/25,14:40,41-51.88N,141-34.72E,178,8.644,32.5084
882,2018/5/25,14:41,41-51.60N,141-34.72E,179,8.639,32.4829
883,2018/5/25,14:42,41-51.32N,141-34.73E,179,8.645,32.4577
884,2018/5/25,14:43,41-51.03N,141-34.73E,178,8.649,32.4309
885,2018/5/25,14:44,41-50.75N,141-34.74E,179,8.613,32.4129
886,2018/5/25,14:45,41-50.47N,141-34.74E,179,8.612,32.3917
887,2018/5/25,14:46,41-50.19N,141-34.75E,179,8.675,32.3692
888,2018/5/25,14:47,41-49.90N,141-34.75E,178,8.736,32.344
889,2018/5/25,14:48,41-49.62N,141-34.76E,179,8.755,32.3169
890,2018/5/25,14:49,41-49.33N,141-34.76E,178,8.779,32.2956
891,2018/5/25,14:50,41-49.04N,141-34.77E,178,8.808,32.2781
892,2018/5/25,14:51,41-48.76N,141-34.78E,179,8.776,32.2671
893,2018/5/25,14:52,41-48.47N,141-34.78E,179,8.76,32.2589
894,2018/5/25,14:53,41-48.17N,141-34.78E,179,8.82,32.2585
895,2018/5/25,14:54,41-47.89N,141-34.78E,180,8.85,32.2561
896,2018/5/25,14:55,41-47.60N,141-34.78E,180,8.868,32.2511
897,2018/5/25,14:56,41-47.30N,141-34.78E,180,8.837,32.245
898,2018/5/25,14:57,41-47.02N,141-34.77E,180,8.818,32.2427
899,2018/5/25,14:58,41-46.74N,141-34.77E,180,8.824,32.2443
900,2018/5/25,14:59,41-46.45N,141-34.77E,180,8.833,32.2472
901,2018/5/25,15:00,41-46.16N,141-34.77E,180,8.848,32.2509
902,2018/5/25,15:01,41-45.87N,141-34.77E,179,8.942,32.2531
903,2018/5/25,15:02,41-45.59N,141-34.77E,180,8.9,32.2446
904,2018/5/25,15:03,41-45.31N,141-34.76E,183,8.909,32.2389
905,2018/5/25,15:04,41-45.02N,141-34.71E,188,9.02,32.2484
906,2018/5/25,15:05,41-44.74N,141-34.63E,193,9.045,32.248
907,2018/5/25,15:06,41-44.47N,141-34.52E,199,9.107,32.2445
908,2018/5/25,15:07,41-44.20N,141-34.37E,202,9.053,32.2595
909,2018/5/25,15:08,41-43.93N,141-34.22E,203,9.094,32.2915
910,2018/5/25,15:09,41-43.67N,141-34.07E,203,9.03,32.351
911,2018/5/25,15:10,41-43.40N,141-33.92E,202,9.247,32.4184
912,2018/5/25,15:11,41-43.14N,141-33.78E,201,9.532,32.5407
913,2018/5/25,15:12,41-42.88N,141-33.65E,199,9.907,32.6403
914,2018/5/25,15:13,41-42.62N,141-33.53E,200,9.593,32.8095
915,2018/5/25,15:14,41-42.36N,141-33.39E,200,9.153,32.807
916,2018/5/25,15:15,41-42.09N,141-33.26E,199,9.089,32.6797
917,2018/5/25,15:16,41-41.83N,141-33.14E,198,9.211,32.553
918,2018/5/25,15:17,41-41.57N,141-33.02E,199,9.317,32.5273
919,2018/5/25,15:18,41-41.31N,141-32.90E,199,9.438,32.5982
920,2018/5/25,15:19,41-41.06N,141-32.79E,197,9.555,32.5969
921,2018/5/25,15:20,41-40.80N,141-32.68E,196,9.837,32.6368
922,2018/5/25,15:21,41-40.54N,141-32.58E,196,9.865,32.6757
923,2018/5/25,15:22,41-40.27N,141-32.47E,197,9.827,32.7074
924,2018/5/25,15:23,41-40.01N,141-32.37E,196,9.649,32.7047
925,2018/5/25,15:24,41-39.76N,141-32.27E,195,9.709,32.6424
926,2018/5/25,15:25,41-39.49N,141-32.17E,195,9.633,32.5877
927,2018/5/25,15:26,41-39.23N,141-32.07E,195,9.369,32.5137
928,2018/5/25,15:27,41-38.97N,141-31.98E,195,9.362,32.4404
929,2018/5/25,15:28,41-38.70N,141-31.88E,195,9.485,32.3958
930,2018/5/25,15:29,41-38.44N,141-31.78E,195,9.477,32.3421
931,2018/5/25,15:30,41-38.18N,141-31.69E,194,9.497,32.2799
932,2018/5/25,15:31,41-37.91N,141-31.60E,194,9.537,32.2386
933,2018/5/25,15:32,41-37.65N,141-31.51E,193,10.035,32.2117
934,2018/5/25,15:33,41-37.38N,141-31.42E,194,10.769,32.3957
935,2018/5/25,15:34,41-37.12N,141-31.35E,188,10.961,32.8594
936,2018/5/25,15:35,41-36.85N,141-31.33E,180,11.005,33.2581
937,2018/5/25,15:36,41-36.57N,141-31.35E,176,10.944,33.5144
938,2018/5/25,15:37,41-36.28N,141-31.37E,176,10.945,33.6149
939,2018/5/25,15:38,41-36.00N,141-31.41E,172,10.896,33.6288
940,2018/5/25,15:39,41-35.70N,141-31.47E,170,11.011,33.5778
941,2018/5/25,15:40,41-35.42N,141-31.54E,169,11.111,33.5588
942,2018/5/25,15:41,41-35.12N,141-31.61E,169,11.316,33.5986
943,2018/5/25,15:42,41-34.83N,141-31.68E,169,11.497,33.6164
944,2018/5/25,15:43,41-34.53N,141-31.75E,170,11.538,33.678
945,2018/5/25,15:44,41-34.22N,141-31.82E,170,11.593,33.723
946,2018/5/25,15:45,41-33.92N,141-31.89E,170,11.584,33.7546
947,2018/5/25,15:46,41-33.62N,141-31.95E,170,11.575,33.766
948,2018/5/25,15:47,41-33.32N,141-32.01E,171,11.507,33.7772
949,2018/5/25,15:48,41-33.00N,141-32.07E,172,11.473,33.7855
950,2018/5/25,15:49,41-32.70N,141-32.13E,172,11.454,33.7982
951,2018/5/25,15:50,41-32.40N,141-32.18E,172,11.478,33.8085
952,2018/5/25,15:51,41-32.09N,141-32.23E,172,11.498,33.818
953,2018/5/25,15:52,41-31.78N,141-32.28E,173,11.444,33.824
954,2018/5/25,15:53,41-31.46N,141-32.32E,174,11.402,33.8267
955,2018/5/25,15:54,41-31.16N,141-32.36E,174,11.375,33.8322
956,2018/5/25,15:55,41-30.85N,141-32.40E,174,11.37,33.8398
957,2018/5/25,15:56,41-30.54N,141-32.44E,174,11.326,33.8485
958,2018/5/25,15:57,41-30.22N,141-32.48E,174,11.251,33.8561
959,2018/5/25,15:58,41-29.92N,141-32.52E,174,11.139,33.8694
960,2018/5/25,15:59,41-29.61N,141-32.56E,175,11.107,33.8768
961,2018/5/25,16:00,41-29.31N,141-32.59E,175,11.113,33.8861
962,2018/5/25,16:01,41-29.00N,141-32.62E,175,11.059,33.8893
963,2018/5/25,16:02,41-28.70N,141-32.65E,175,11.06,33.8908
964,2018/5/25,16:03,41-28.39N,141-32.69E,175,11.058,33.8895
965,2018/5/25,16:04,41-28.09N,141-32.71E,176,11.088,33.8871
966,2018/5/25,16:05,41-27.80N,141-32.74E,176,11.087,33.8898
967,2018/5/25,16:06,41-27.50N,141-32.76E,176,11.158,33.8886
968,2018/5/25,16:07,41-27.20N,141-32.79E,176,11.192,33.8844
969,2018/5/25,16:08,41-26.91N,141-32.81E,176,11.223,33.8788
970,2018/5/25,16:09,41-26.61N,141-32.83E,177,11.249,33.8762
971,2018/5/25,16:10,41-26.33N,141-32.84E,177,11.266,33.8739
972,2018/5/25,16:11,41-26.05N,141-32.89E,170,11.28,33.8753
973,2018/5/25,16:12,41-25.77N,141-32.96E,168,11.286,33.8698
974,2018/5/25,16:13,41-25.48N,141-33.04E,169,11.328,33.8634
975,2018/5/25,16:14,41-25.19N,141-33.10E,170,11.283,33.8575
976,2018/5/25,16:15,41-24.91N,141-33.17E,169,11.221,33.8187
977,2018/5/25,16:16,41-24.63N,141-33.24E,169,11.146,33.7223
978,2018/5/25,16:17,41-24.35N,141-33.30E,169,11.073,33.6615
979,2018/5/25,16:18,41-24.07N,141-33.37E,169,11.08,33.6477
980,2018/5/25,16:19,41-23.79N,141-33.44E,169,11.111,33.6542
981,2018/5/25,16:20,41-23.50N,141-33.51E,169,11.231,33.6564
982,2018/5/25,16:21,41-23.22N,141-33.58E,169,11.178,33.6782
983,2018/5/25,16:22,41-22.93N,141-33.65E,169,11.075,33.6977
984,2018/5/25,16:23,41-22.64N,141-33.72E,169,10.914,33.6914
985,2018/5/25,16:24,41-22.36N,141-33.79E,169,10.865,33.6699
986,2018/5/25,16:25,41-22.09N,141-33.86E,169,10.823,33.6316
987,2018/5/25,16:26,41-21.80N,141-33.93E,169,10.835,33.5987
988,2018/5/25,16:27,41-21.52N,141-34.00E,169,10.865,33.5772
989,2018/5/25,16:28,41-21.24N,141-34.07E,169,10.951,33.5645
990,2018/5/25,16:29,41-20.95N,141-34.14E,169,10.974,33.5731
991,2018/5/25,16:30,41-20.67N,141-34.21E,169,10.99,33.5798
992,2018/5/25,16:31,41-20.39N,141-34.29E,168,10.853,33.592
993,2018/5/25,16:32,41-20.10N,141-34.37E,168,10.822,33.6088
994,2018/5/25,16:33,41-19.83N,141-34.44E,168,10.784,33.5929
995,2018/5/25,16:34,41-19.55N,141-34.51E,168,10.806,33.5753
996,2018/5/25,16:35,41-19.27N,141-34.59E,169,10.848,33.5645
997,2018/5/25,16:36,41-18.99N,141-34.66E,168,10.825,33.5565
998,2018/5/25,16:37,41-18.71N,141-34.73E,169,10.859,33.5602
999,2018/5/25,16:38,41-18.43N,141-34.80E,169,10.908,33.5515
1000,2018/5/25,16:39,41-18.15N,141-34.87E,169,10.944,33.5554
1001,2018/5/25,16:40,41-17.87N,141-34.94E,169,10.96,33.5651
1002,2018/5/25,16:41,41-17.59N,141-35.01E,169,10.984,33.5721
1003,2018/5/25,16:42,41-17.31N,141-35.08E,169,11.064,33.5775
1004,2018/5/25,16:43,41-17.04N,141-35.15E,169,11.106,33.5966
1005,2018/5/25,16:44,41-16.76N,141-35.21E,170,11.084,33.6304
1006,2018/5/25,16:45,41-16.47N,141-35.28E,170,11.153,33.6373
1007,2018/5/25,16:46,41-16.19N,141-35.34E,171,11.213,33.653
1008,2018/5/25,16:47,41-15.91N,141-35.38E,173,11.226,33.6806
1009,2018/5/25,16:48,41-15.62N,141-35.42E,173,11.295,33.6965
1010,2018/5/25,16:49,41-15.34N,141-35.46E,174,11.33,33.7041
1011,2018/5/25,16:50,41-15.05N,141-35.49E,174,11.352,33.7057
1012,2018/5/25,16:51,41-14.76N,141-35.53E,174,11.403,33.705
1013,2018/5/25,16:52,41-14.48N,141-35.56E,175,11.45,33.7068
1014,2018/5/25,16:53,41-14.19N,141-35.58E,175,11.486,33.7103
1015,2018/5/25,16:54,41-13.91N,141-35.62E,175,11.494,33.7083
1016,2018/5/25,16:55,41-13.61N,141-35.65E,175,11.511,33.7037
1017,2018/5/25,16:56,41-13.33N,141-35.67E,175,11.542,33.7003
1018,2018/5/25,16:57,41-13.04N,141-35.70E,175,11.575,33.6976
1019,2018/5/25,16:58,41-12.75N,141-35.73E,175,11.576,33.6986
1020,2018/5/25,16:59,41-12.46N,141-35.76E,175,11.575,33.7018
1021,2018/5/25,17:00,41-12.16N,141-35.79E,175,11.569,33.7005
1022,2018/5/25,17:01,41-11.87N,141-35.82E,175,11.636,33.6974
1023,2018/5/25,17:02,41-11.58N,141-35.85E,175,11.627,33.6986
1024,2018/5/25,17:03,41-11.29N,141-35.88E,175,11.59,33.7051
1025,2018/5/25,17:04,41-10.99N,141-35.91E,176,11.604,33.7031
1026,2018/5/25,17:05,41-10.70N,141-35.94E,175,11.604,33.7005
1027,2018/5/25,17:06,41-10.40N,141-35.97E,175,11.572,33.7042
1028,2018/5/25,17:07,41-10.10N,141-36.00E,176,11.549,33.7064
1029,2018/5/25,17:08,41-09.80N,141-36.02E,175,11.555,33.7047
1030,2018/5/25,17:09,41-09.50N,141-36.05E,175,11.544,33.7039
1031,2018/5/25,17:10,41-09.20N,141-36.08E,175,11.52,33.7029
1032,2018/5/25,17:11,41-08.91N,141-36.11E,175,11.423,33.7055
1033,2018/5/25,17:12,41-08.61N,141-36.14E,175,11.354,33.7096
1034,2018/5/25,17:13,41-08.32N,141-36.18E,173,10.896,33.7117
1035,2018/5/25,17:14,41-08.02N,141-36.23E,172,10.553,33.7108
1036,2018/5/25,17:15,41-07.74N,141-36.28E,172,10.435,33.6343
1037,2018/5/25,17:16,41-07.45N,141-36.32E,172,10.335,33.5491
1038,2018/5/25,17:17,41-07.17N,141-36.38E,171,10.468,33.5098
1039,2018/5/25,17:18,41-06.88N,141-36.45E,169,10.783,33.4992
1040,2018/5/25,17:19,41-06.60N,141-36.53E,168,10.854,33.558
1041,2018/5/25,17:20,41-06.31N,141-36.61E,168,10.635,33.6247
1042,2018/5/25,17:21,41-06.02N,141-36.68E,168,10.779,33.6393
1043,2018/5/25,17:22,41-05.75N,141-36.76E,168,10.871,33.6297
1044,2018/5/25,17:23,41-05.46N,141-36.83E,168,10.909,33.649
1045,2018/5/25,17:24,41-05.18N,141-36.91E,168,10.93,33.6683
1046,2018/5/25,17:25,41-04.89N,141-36.99E,168,10.943,33.6799
1047,2018/5/25,17:26,41-04.60N,141-37.07E,168,10.957,33.6773
1048,2018/5/25,17:27,41-04.32N,141-37.15E,168,10.971,33.6743
1049,2018/5/25,17:28,41-04.04N,141-37.22E,168,10.991,33.6704
1050,2018/5/25,17:29,41-03.75N,141-37.30E,168,11.003,33.6624
1051,2018/5/25,17:30,41-03.46N,141-37.38E,168,11.018,33.6507
1052,2018/5/25,17:31,41-03.18N,141-37.45E,168,11.011,33.6401
1053,2018/5/25,17:32,41-02.90N,141-37.53E,168,11.06,33.6336
1054,2018/5/25,17:33,41-02.62N,141-37.61E,168,10.494,33.6212
1055,2018/5/25,17:34,41-02.33N,141-37.69E,168,9.792,33.5663
1056,2018/5/25,17:35,41-02.05N,141-37.77E,167,9.786,33.3734
1057,2018/5/25,17:36,41-01.76N,141-37.85E,168,9.614,33.2408
1058,2018/5/25,17:37,41-01.49N,141-37.93E,167,9.698,33.1877
1059,2018/5/25,17:38,41-01.20N,141-38.02E,167,10.132,33.1754
1060,2018/5/25,17:39,41-00.92N,141-38.10E,167,10.495,33.2175
1061,2018/5/25,17:40,41-00.63N,141-38.18E,167,10.714,33.3165
1062,2018/5/25,17:41,41-00.35N,141-38.27E,167,10.779,33.4266
1063,2018/5/25,17:42,41-00.07N,141-38.35E,167,10.541,33.4734
1064,2018/5/25,17:43,40-59.78N,141-38.44E,167,10.483,33.5014
1065,2018/5/25,17:44,40-59.50N,141-38.53E,167,10.417,33.5078
1066,2018/5/25,17:45,40-59.21N,141-38.61E,167,10.427,33.4975
1067,2018/5/25,17:46,40-58.92N,141-38.70E,167,10.324,33.4695
1068,2018/5/25,17:47,40-58.64N,141-38.79E,166,10.275,33.4297
1069,2018/5/25,17:48,40-58.35N,141-38.87E,167,10.244,33.3645
1070,2018/5/25,17:49,40-58.06N,141-38.96E,167,10.187,33.3115
1071,2018/5/25,17:50,40-57.78N,141-39.05E,166,10.492,33.2737
1072,2018/5/25,17:51,40-57.49N,141-39.13E,167,10.688,33.2876
1073,2018/5/25,17:52,40-57.21N,141-39.21E,168,10.776,33.3332
1074,2018/5/25,17:53,40-56.93N,141-39.29E,168,10.895,33.3773
1075,2018/5/25,17:54,40-56.64N,141-39.37E,168,11.029,33.4417
1076,2018/5/25,17:55,40-56.35N,141-39.45E,167,11.157,33.4628
1077,2018/5/25,17:56,40-56.07N,141-39.53E,168,11.209,33.4544
1078,2018/5/25,17:57,40-55.79N,141-39.61E,168,11.247,33.4576
1079,2018/5/25,17:58,40-55.50N,141-39.69E,168,11.073,33.4848
1080,2018/5/25,17:59,40-55.22N,141-39.77E,168,10.968,33.4991
1081,2018/5/25,18:00,40-54.93N,141-39.85E,168,10.972,33.6095
1082,2018/5/25,18:01,40-54.65N,141-39.92E,169,10.97,33.6423
1083,2018/5/25,18:02,40-54.37N,141-39.99E,169,11.029,33.6555
1084,2018/5/25,18:03,40-54.10N,141-40.06E,169,11.076,33.657
1085,2018/5/25,18:04,40-53.82N,141-40.14E,169,11.098,33.6613
1086,2018/5/25,18:05,40-53.54N,141-40.21E,169,11.095,33.66
1087,2018/5/25,18:06,40-53.26N,141-40.28E,169,11.144,33.6619
1088,2018/5/25,18:07,40-52.98N,141-40.35E,169,11.213,33.6654
1089,2018/5/25,18:08,40-52.70N,141-40.41E,170,11.26,33.6668
1090,2018/5/25,18:09,40-52.42N,141-40.48E,169,11.159,33.666
1091,2018/5/25,18:10,40-52.14N,141-40.55E,168,10.761,33.6659
1092,2018/5/25,18:11,40-51.87N,141-40.62E,168,10.673,33.6559
1093,2018/5/25,18:12,40-51.59N,141-40.69E,169,10.536,33.6385
1094,2018/5/25,18:13,40-51.32N,141-40.76E,169,10.725,33.6193
1095,2018/5/25,18:14,40-51.04N,141-40.82E,169,10.84,33.5988
1096,2018/5/25,18:15,40-50.77N,141-40.91E,163,10.939,33.5691
1097,2018/5/25,18:16,40-50.51N,141-41.03E,160,11.016,33.5297
1098,2018/5/25,18:17,40-50.24N,141-41.16E,159,11.047,33.5127
1099,2018/5/25,18:18,40-49.98N,141-41.29E,160,11.159,33.5032
1100,2018/5/25,18:19,40-49.71N,141-41.42E,160,11.269,33.4963
1101,2018/5/25,18:20,40-49.45N,141-41.54E,160,11.249,33.4792
1102,2018/5/25,18:21,40-49.18N,141-41.67E,160,11.215,33.4619
1103,2018/5/25,18:22,40-48.91N,141-41.79E,160,11.219,33.4643
1104,2018/5/25,18:23,40-48.64N,141-41.92E,160,11.164,33.4679
1105,2018/5/25,18:24,40-48.37N,141-42.05E,160,11.156,33.4769
1106,2018/5/25,18:25,40-48.10N,141-42.18E,159,11.173,33.4928
1107,2018/5/25,18:26,40-47.83N,141-42.31E,160,11.291,33.5022
1108,2018/5/25,18:27,40-47.57N,141-42.43E,160,11.35,33.4978
1109,2018/5/25,18:28,40-47.29N,141-42.57E,159,11.52,33.4794
1110,2018/5/25,18:29,40-47.03N,141-42.70E,159,11.55,33.456
1111,2018/5/25,18:30,40-46.75N,141-42.83E,160,11.59,33.4202